Weather History for KRAP - August, 2014

Change the Weather History Date:

Thursday, August 28, 2014

  Actual Average Record
Temperature  
Mean Temperature 67 °F 69 °F  
Max Temperature 79 °F 84 °F 100 °F (2012)
Min Temperature 55 °F 54 °F 41 °F (2004)
Degree Days  
Heating Degree Days 0 1  
Month to date heating degree days 11 12  
Since 1 June heating degree days 161 126  
Since 1 July heating degree days 33 27  
Cooling Degree Days 2 5  
Month to date cooling degree days 148 210  
Year to date cooling degree days 357 559  
Since 1 June cooling degree days 337 544  
Growing Degree Days 18 (Base 50)    
Moisture  
Dew Point 58 °F    
Average Humidity 70    
Maximum Humidity 100    
Minimum Humidity 39    
Precipitation  
Precipitation 0.00 in 0.04 in 0.41 in (1990)
Month to date precipitation 3.12 1.43  
Year to date precipitation 15.70 12.50  
Snow  
Snow 0.00 in 0.00 in - ()
Month to date snowfall 0.0 0.0  
Since 1 June snowfall 0.0 0.0  
Since 1 July snowfall 0.0 0.0  
Snow Depth 0.00 in    
Sea Level Pressure  
Sea Level Pressure 29.93 in    
Wind  
Wind Speed 2 mph (NNW)    
Max Wind Speed 9 mph    
Max Gust Speed 12 mph    
Visibility 10 miles    
Events      
T = Trace of Precipitation, MM = Missing Value Source: NWS Daily Summary

Daily Weather History Graph

Daily Weather History Graph

Search for Another Location

Airport or City:

Trip Planner

Search our weather history database for the weather conditions in past years. The results will help you decide how hot, cold, wet, or windy it might be!

Date:

Astronomy

Aug. 28, 2014 Rise Set
Actual Time 6:10 AM MDT 7:35 PM MDT
Civil Twilight 5:40 AM MDT 8:05 PM MDT
Nautical Twilight 5:04 AM MDT 8:41 PM MDT
Astronomical Twilight 4:25 AM MDT 9:19 PM MDT
Moon 9:13 AM MDT (8/28) 8:51 PM MDT (8/28)
Length of Visible Light 14h 24m
Length of Day
13h 24m
Waxing Crescent, 9% of the Moon is Illuminated
Aug 28
Waxing Crescent
Sep 2
First Quarter
Sep 8
Full
Sep 15
Last Quarter
Sep 24
New

Hourly Weather History & Observations

Time (MDT) Temp. Dew Point Humidity Pressure Visibility Wind Dir Wind Speed Gust Speed Precip Events Conditions
12:52 AM 63.0 °F 61.0 °F 93% 29.96 in 10.0 mi Calm Calm - N/A   Overcast
1:52 AM 62.1 °F 60.1 °F 93% 29.96 in 10.0 mi North 3.5 mph - N/A   Overcast
2:52 AM 63.0 °F 60.1 °F 90% 29.95 in 10.0 mi NNE 6.9 mph - N/A   Overcast
3:11 AM 62.1 °F 61.0 °F 96% 30.01 in 10.0 mi North 5.8 mph - N/A   Overcast
3:52 AM 62.1 °F 60.1 °F 93% 29.96 in 10.0 mi Calm Calm - N/A   Overcast
4:52 AM 61.0 °F 60.1 °F 97% 29.96 in 10.0 mi NNW 6.9 mph - N/A   Overcast
5:11 AM 62.1 °F 59.0 °F 90% 30.01 in 10.0 mi North 4.6 mph - N/A   Overcast
5:31 AM 61.0 °F 59.0 °F 93% 30.00 in 10.0 mi NNW 4.6 mph - N/A   Overcast
5:52 AM 61.0 °F 59.0 °F 93% 29.95 in 10.0 mi NW 4.6 mph - N/A   Overcast
6:52 AM 62.1 °F 59.0 °F 90% 29.95 in 10.0 mi WNW 4.6 mph - N/A   Overcast
7:52 AM 64.9 °F 60.1 °F 84% 29.95 in 10.0 mi Calm Calm - N/A   Mostly Cloudy
8:52 AM 64.4 °F 60.8 °F 88% 30.01 in 10.0 mi Calm Calm - N/A   Overcast
9:52 AM 68.0 °F 59.0 °F 73% 29.96 in 10.0 mi Calm Calm - N/A   Mostly Cloudy
10:52 AM 70.0 °F 60.1 °F 71% 29.95 in 10.0 mi Variable 3.5 mph - N/A   Clear
11:52 AM 73.0 °F 59.0 °F 61% 29.94 in 10.0 mi NNW 4.6 mph - N/A   Clear
12:52 PM 75.0 °F 57.0 °F 53% 29.92 in 10.0 mi Calm Calm - N/A   Clear
1:52 PM 77.0 °F 55.0 °F 47% 29.91 in 10.0 mi NW 5.8 mph - N/A   Clear
2:52 PM 75.9 °F 55.9 °F 50% 29.89 in 10.0 mi Calm Calm - N/A   Clear
3:52 PM 77.0 °F 52.0 °F 42% 29.88 in 10.0 mi Calm Calm - N/A   Clear
4:52 PM 79.0 °F 52.0 °F 39% 29.87 in 10.0 mi Variable 3.5 mph - N/A   Clear
5:52 PM 75.9 °F 57.0 °F 52% 29.86 in 10.0 mi Calm Calm - N/A   Clear
6:52 PM 73.0 °F 62.1 °F 68% 29.86 in 10.0 mi ESE 4.6 mph - N/A   Clear
7:52 PM 68.0 °F 61.0 °F 78% 29.87 in 10.0 mi SSE 4.6 mph - N/A   Clear
8:52 PM 64.0 °F 61.0 °F 90% 29.89 in 10.0 mi Calm Calm - N/A   Clear
9:52 PM 60.1 °F 57.9 °F 93% 29.88 in 10.0 mi Calm Calm - N/A   Clear
10:52 PM 60.1 °F 57.0 °F 90% 29.88 in 10.0 mi Calm Calm - N/A   Clear
11:52 PM 55.9 °F 55.0 °F 97% 29.87 in 9.0 mi Calm Calm - N/A   Clear